Location: St Paul
(33.4390°N, 83.7350°W)
Time: 01:19:41
(UTC-05:00)

SL-08 R/B - Pass Details

Date: 06 October 2017
Orbit: 951 x 1018 km, 82.9° (Epoch: 13 December)

Event Time Altitude Azimuth Distance (km) Brightness Sun altitude
Rises 20:42:54 0° 181° (S) 3,695 7.5 -19.7°
Reaches altitude 10° 20:45:26 10° 180° (S) 2,740 6.8 -20.2°
Maximum altitude 20:51:42 80° 94° (E) 995 4.4 -21.5°
Drops below altitude 10° 20:57:55 10° 9° (N) 2,709 6.8 -22.8°
Sets 21:00:24 0° 8° (N) 3,652 7.5 -23.3°
